This demonstration page uses our WeatherBlox Daily Observations layout. Learn more.

Left ArrowRight Arrow

31.31129, -92.44514

Hourly Observations for August 25, 2018

Temp ( °F °C ) Dew Point ( °F °C ) Humidity (%) Winds ( mph kmh ) Pressure ( in mb ) Visibility ( mi km ) Precip ( " mm )
12:53 am 00:53 Hazy 77 25 71 21.7 82 82 Calm 30.00 1016 6 10 0.00 0.00
1:53 am 01:53 Hazy 76 24.4 71 21.7 85 85 SE 6 9 30.00 1016 6 10 0.00 0.00
2:53 am 02:53 Clear with Mist and Fog 75 23.9 71 21.7 88 88 SSE 3 6 30.00 1016 6 10 0.00 0.00
3:53 am 03:53 Clear with Mist and Fog 75 23.9 71 21.7 88 88 Calm 30.02 1017 6 10 0.00 0.00
4:53 am 04:53 Clear with Mist and Fog 73 22.8 71 21.7 94 94 SE 3 6 30.02 1017 5 8 0.00 0.00
5:53 am 05:53 Clear with Mist and Fog 74 23.3 71 21.7 91 91 Calm 30.03 1017 5 8 0.00 0.00
6:53 am 06:53 Sunny with Mist and Fog 73 22.8 70 21.1 90 90 Calm 30.04 1017 3 5 0.00 0.00
7:53 am 07:53 Sunny with Mist and Fog 76 24.4 73 22.8 91 91 Calm 30.06 1018 4 6 0.00 0.00
8:53 am 08:53 Hazy 83 28.3 73 22.8 72 72 Calm 30.07 1018 6 10 0.00 0.00
9:53 am 09:53 Hazy 86 30 72 22.2 63 63 Calm 30.07 1018 6 10 0.00 0.00
10:53 am 10:53 Hazy 89 31.7 70 21.1 53 53 VRB 5 7 30.08 1019 6 10 0.00 0.00
11:53 am 11:53 Hazy 92 33.3 68 20 46 46 ESE 10 17 30.07 1018 6 10 0.00 0.00
12:53 pm 12:53 Hazy 92 33.3 66 18.9 43 43 S 8 13 30.06 1018 6 10 0.00 0.00
1:53 pm 13:53 Partly Cloudy 95 35 66 18.9 39 39 S 7 11 30.04 1017 7 11 0.00 0.00
2:53 pm 14:53 Mostly Cloudy 95 35 66 18.9 39 39 VRB 5 7 30.03 1017 7 11 0.00 0.00
3:53 pm 15:53 Partly Cloudy 94 34.4 64 17.8 37 37 ESE 9 15 30.01 1016 7 11 0.00 0.00
4:53 pm 16:53 Partly Cloudy 95 35 64 17.8 36 36 SE 9 15 30.01 1016 7 11 0.00 0.00
5:53 pm 17:53 Sunny 94 34.4 62 16.7 35 35 SE 8 13 30.01 1016 7 11 0.00 0.00
6:53 pm 18:53 Sunny 92 33.3 63 17.2 38 38 E 7 11 30.01 1016 7 11 0.00 0.00
7:53 pm 19:53 Clear 85 29.4 66 18.9 53 53 ESE 3 6 30.01 1016 7 11 0.00 0.00
8:53 pm 20:53 Clear 82 27.8 67 19.4 60 60 ESE 3 6 30.02 1017 7 11 0.00 0.00
9:53 pm 21:53 Clear 80 26.7 69 20.6 69 69 ESE 3 6 30.04 1017 7 11 0.00 0.00
10:53 pm 22:53 Hazy 79 26.1 69 20.6 72 72 Calm 30.06 1018 6 10 0.00 0.00
11:53 pm 23:53 Hazy 76 24.4 70 21.1 82 82 SSE 6 9 30.07 1018 6 10 0.00 0.00

Powered by AerisWeather